Temperature
16 16 16 16 17 16 16 16 16 16 16 16 16 16 16 16 15 15 15 15 15 15 14 14 14 14 13 13 13 13 13 13 12 12 12 12 12 11
16 16 16 16 16 16 16 16 16 16 16 16 15 15 15 15 15 15 15 15 14 14 14 14 14 13 13 13 13 12 12 12 12 12 11 11 11 11
16 16 16 16 16 16 16 16 16 16 16 15 15 15 15 15 15 14 14 14 14 14 13 13 13 13 12 12 12 12 12 11 11 11 11 11 10 10
16 16 16 16 16 16 16 16 16 15 15 15 15 14 14 14 14 14 13 13 13 13 13 12 12 12 12 12 11 11 11 11 11 10 10 10 10 10
16 15 16 15 15 15 15 15 15 15 15 15 14 14 14 14 13 13 13 13 12 12 12 12 11 11 11 11 11 11 10 10 10 10 10 10 9 9
15 15 15 15 15 15 15 15 15 15 14 14 14 13 13 13 13 12 12 12 12 12 11 11 11 11 10 10 10 10 10 10 9 9 9 9 9 8
15 15 15 15 14 14 14 14 14 14 14 14 13 13 13 12 12 12 12 11 11 11 11 10 10 10 10 10 9 9 9 9 9 9 8 8 8 8
15 15 14 14 14 14 14 14 14 14 13 13 13 13 12 12 12 12 11 11 10 10 10 10 10 9 9 9 9 8 8 8 8 8 7 7 7 7
14 14 14 14 14 14 13 13 13 13 13 13 12 12 12 12 12 11 11 11 11 10 10 9 9 9 8 8 8 8 8 7 7 7 7 7 7 6
14 13 13 13 13 13 13 13 13 12 12 12 12 12 12 11 11 11 11 11 10 9 9 9 9 8 8 8 7 7 7 7 6 6 6 6 6 6
13 13 13 13 13 12 12 12 12 12 12 12 11 11 11 11 11 11 10 10 9 9 9 9 8 8 8 7 7 7 6 6 6 6 6 5 5 5
13 13 12 12 12 12 12 12 12 11 11 11 11 11 11 11 10 10 10 10 9 9 9 8 8 8 7 7 6 6 6 6 6 6 5 5 5 5
13 12 12 12 12 12 11 11 11 11 11 11 11 10 10 10 10 10 10 9 9 9 8 8 8 7 7 6 6 6 6 6 5 5 5 5 5 5
12 12 12 12 11 11 11 11 11 11 10 10 10 10 10 9 9 9 9 9 9 8 8 8 8 7 7 6 6 6 5 5 5 5 5 5 5 5
12 11 11 11 11 11 11 10 10 10 10 10 10 9 9 9 9 8 8 8 8 8 7 7 7 7 7 7 6 6 6 5 5 5 5 5 5 5
11 11 11 10 10 10 10 10 10 10 10 9 9 9 8 8 8 8 8 8 7 7 7 7 7 7 7 6 6 6 6 6 5 5 5 5 5 5
11 10 10 10 10 10 9 9 9 9 9 9 9 8 8 8 8 8 7 7 7 7 6 6 6 6 6 6 6 6 6 6 5 5 5 5 5 5
10 10 10 10 9 9 9 9 9 9 8 8 8 8 8 8 7 7 7 7 7 6 6 6 6 6 6 6 6 6 6 6 5 5 5 5 5 5
9 9 9 9 9 9 9 9 8 8 8 8 8 8 7 7 7 7 6 6 6 6 6 6 6 6 6 6 6 6 6 6 5 5 5 5 5 5
9 9 9 9 9 8 8 8 8 8 7 7 7 7 7 7 6 6 6 6 6 6 6 6 6 6 6 6 6 5 5 5 5 5 5 5 5 5
9 8 8 8 8 8 8 8 7 7 7 7 7 7 6 6 6 6 6 6 5 5 5 5 5 5 5 5 5 5 5 5 5 5 5 5 5 5
8 8 8 8 8 8 7 7 7 7 7 7 6 6 6 6 6 6 6 5 5 5 5 5 5 5 5 5 5 5 5 5 5 5 5 5 5 5
8 8 8 8 7 7 7 7 7 7 6 6 6 6 6 6 6 5 5 5 5 5 5 5 5 5 5 5 5 5 5 5 5 5 5 5 5 5
Wind_Speed
5 5 5 4 4 4 4 5 5 4 4 3 2 1 3 5 6 8 9 10 10 11 11 10 10 10 10 9 9 8 8 7 7 6 5 4 3 3
3 3 4 3 3 3 3 3 4 4 4 3 2 1 3 4 6 8 8 9 10 11 11 11 11 11 11 10 9 9 8 8 7 6 5 4 3 3
3 3 4 3 2 2 2 2 2 3 4 3 1 1 2 3 5 7 8 8 9 10 11 11 12 11 11 10 10 9 8 7 7 6 5 5 4 4
3 3 3 3 3 2 2 3 3 3 4 4 2 2 2 3 5 5 7 8 8 9 11 11 11 11 11 10 10 9 8 8 7 6 6 5 5 4
2 2 3 2 2 2 2 2 2 2 3 4 3 2 1 3 4 5 6 6 7 8 10 10 10 10 10 10 10 10 9 8 7 6 6 5 4 4
0 0 1 1 2 2 2 2 2 2 3 3 3 2 2 2 4 4 4 3 3 5 7 7 8 8 9 10 9 9 9 8 7 6 5 4 4 3
1 1 1 2 2 1 1 2 2 2 3 3 3 2 2 3 4 3 5 4 2 2 3 3 4 5 6 7 7 8 8 7 6 5 5 4 3 3
1 1 2 2 3 3 3 3 3 4 4 3 3 4 4 4 4 5 5 4 2 2 3 2 3 2 4 6 7 7 7 6 5 4 4 3 3 3
2 1 1 2 2 2 3 4 4 4 5 5 4 4 4 5 7 6 5 5 3 4 4 2 1 1 3 5 6 7 6 5 4 4 4 3 4 3
2 1 2 1 2 2 3 4 3 3 3 3 3 3 4 5 7 7 7 5 3 2 3 3 2 1 1 3 5 6 5 5 4 3 3 2 2 2
1 2 2 2 3 4 4 4 3 3 5 6 6 6 7 7 9 6 6 5 3 1 1 3 2 1 1 0 3 6 6 6 6 4 3 2 1 0
2 2 4 3 3 4 4 4 3 1 2 4 5 5 5 6 7 6 7 6 4 2 2 3 2 2 1 1 2 4 5 6 6 5 5 5 4 2
1 1 1 3 3 4 4 3 3 3 3 3 3 3 3 3 3 4 4 5 4 2 4 4 3 2 3 1 1 2 4 4 4 5 6 7 7 6
2 1 0 2 3 3 3 3 4 5 4 3 3 2 2 2 2 4 5 5 4 4 6 6 3 4 4 2 1 1 2 4 4 4 5 6 7 8
1 2 2 2 2 2 2 4 4 3 4 3 2 1 1 1 3 4 5 7 7 6 6 5 5 4 4 3 3 2 1 2 3 3 3 5 5 5
1 2 4 4 3 3 3 2 2 2 3 3 2 1 1 2 3 3 3 3 4 3 4 3 4 5 3 3 4 2 2 2 2 2 3 4 6 7
2 2 1 1 1 1 1 1 1 2 2 2 3 2 2 2 2 2 3 3 3 2 1 2 3 4 3 4 3 2 2 1 2 2 1 2 4 6
3 2 1 1 2 2 2 1 1 1 1 2 3 3 3 3 2 2 3 3 3 2 1 1 2 3 3 3 1 3 2 2 2 1 2 1 3 5
3 2 2 2 2 2 2 2 1 1 1 2 3 3 3 3 3 3 3 3 2 2 1 1 2 3 3 0 4 3 4 2 1 1 2 3 3 5
1 1 2 2 2 2 2 2 2 2 2 2 2 3 3 3 3 3 2 3 2 2 1 0 1 3 4 4 2 3 4 4 3 2 2 2 3 6
1 1 1 2 2 2 3 3 3 2 2 2 2 3 3 4 3 3 3 3 3 2 1 2 3 3 2 2 1 2 3 6 6 4 3 1 2 3
1 1 1 2 2 3 3 3 3 2 2 2 2 2 3 3 4 3 3 3 2 2 2 2 1 1 2 2 2 3 3 4 5 6 7 7 4 4
1 1 1 2 2 2 3 3 3 3 2 2 2 2 3 3 3 3 3 2 2 1 1 0 1 0 1 2 2 2 3 3 2 3 5 9 11 13
Wind_Direction
229 231 234 239 223 218 210 197 196 224 242 231 226 259 173 170 177 172 169 175 179 174 170 168 167 166 161 159 155 151 147 144 140 136 132 130 131 132
225 232 242 246 232 222 216 214 203 204 226 226 216 204 153 157 163 158 158 157 160 159 156 154 151 148 149 146 144 146 146 146 145 144 142 138 134 123
240 233 242 238 234 236 230 221 213 193 211 237 218 158 146 143 127 133 138 138 142 147 149 148 147 146 144 142 143 142 140 140 141 140 137 127 117 108
242 240 251 243 235 238 231 227 219 197 189 207 212 166 138 145 132 128 126 127 129 131 135 136 136 138 141 143 140 139 138 137 135 131 126 120 113 105
243 238 248 229 241 245 223 223 224 198 171 178 201 192 130 135 121 115 110 106 118 123 126 129 136 138 136 137 139 140 136 134 130 125 124 123 117 109
265 203 222 200 214 216 220 219 198 171 159 164 176 166 134 129 131 128 117 102 110 120 124 131 139 141 140 141 142 145 146 142 137 130 125 121 117 114
54 57 75 90 103 144 170 189 181 175 170 171 170 143 143 146 160 146 140 123 91 105 108 117 131 134 147 152 150 149 153 151 146 137 126 116 113 116
109 63 57 49 58 70 85 109 143 158 165 162 170 170 176 172 157 155 146 143 160 178 130 111 121 126 164 171 166 162 158 154 154 153 144 124 110 105
115 105 84 61 56 55 65 71 81 115 141 156 166 185 181 183 168 163 164 157 162 171 142 136 125 134 196 183 178 178 176 167 155 150 137 116 101 97
94 111 113 58 62 82 81 70 60 58 113 135 159 170 171 170 172 169 162 141 101 114 134 143 161 184 202 193 192 193 195 190 184 183 172 144 108 98
58 71 100 88 78 91 95 90 70 43 71 94 106 109 120 137 146 138 137 138 138 165 157 138 152 135 96 235 218 211 213 213 214 216 219 231 247 279
60 60 77 97 105 112 117 119 115 98 85 73 71 75 86 108 137 157 164 160 146 161 184 146 142 129 114 302 245 221 223 230 235 238 241 246 243 254
110 58 45 91 102 117 126 140 162 140 109 98 86 69 62 73 97 119 144 155 149 161 179 150 142 135 137 167 256 229 222 229 236 244 248 249 247 238
157 181 91 87 101 118 126 130 124 117 107 99 95 92 94 97 98 99 109 113 126 148 160 149 139 150 135 123 205 247 236 229 224 242 255 259 260 256
150 141 108 85 77 86 110 115 116 114 119 122 132 139 133 124 99 83 77 81 76 86 121 135 133 142 140 150 168 186 214 246 232 233 250 249 249 251
122 93 73 74 77 72 73 88 106 133 141 145 150 134 103 99 101 101 97 87 74 41 42 90 130 138 135 141 149 164 182 206 224 232 241 262 268 260
132 86 62 73 78 50 45 57 79 98 114 116 121 116 111 110 103 99 105 104 104 108 57 32 64 104 136 143 145 173 182 210 219 211 208 272 280 270
130 142 166 172 173 171 159 122 89 118 131 128 133 140 142 139 124 104 108 120 125 125 126 102 80 65 43 5 202 173 187 213 238 225 183 204 275 280
136 165 180 185 178 166 164 153 153 147 132 133 138 142 141 136 130 127 124 119 118 124 155 145 124 122 121 284 307 219 180 206 213 247 227 207 234 263
146 175 187 183 174 169 165 156 146 134 128 131 134 135 136 136 136 139 144 146 140 135 132 124 156 162 174 192 225 268 229 192 197 221 244 255 267 284
207 199 192 184 175 170 165 161 155 151 146 139 137 141 143 139 144 154 157 149 138 144 178 236 248 223 152 101 59 303 283 252 222 202 205 233 296 314
218 215 202 189 178 170 165 159 155 153 152 147 152 152 149 148 152 151 150 149 157 176 213 256 296 88 106 147 216 258 284 299 291 268 244 223 193 216
192 196 194 187 174 158 154 156 159 163 165 162 156 156 155 157 158 150 148 151 157 185 193 250 347 45 200 196 214 251 270 278 293 310 291 282 268 262
Height
1558 1558 1559 1559 1559 1560 1560 1560 1561 1559 1559 1560 1560 1561 1561 1562 1562 1563 1564 1565 1565 1566 1566 1567 1567 1568 1569 1569 1569 1570 1570 1570 1570 1570 1570 1569 1569 1569
1554 1554 1554 1555 1555 1555 1555 1556 1556 1556 1555 1555 1556 1557 1557 1558 1559 1559 1560 1560 1561 1562 1562 1563 1564 1564 1565 1566 1566 1566 1566 1566 1566 1566 1566 1566 1566 1566
1550 1550 1550 1550 1550 1551 1551 1551 1551 1551 1551 1551 1552 1553 1553 1554 1554 1555 1556 1556 1557 1558 1559 1560 1560 1561 1562 1562 1562 1562 1563 1563 1563 1563 1563 1563 1562 1562
1547 1547 1546 1546 1546 1546 1546 1546 1546 1546 1547 1546 1547 1548 1549 1550 1551 1551 1552 1553 1554 1555 1556 1556 1557 1558 1558 1558 1559 1559 1559 1560 1560 1560 1559 1559 1559 1559
1543 1543 1543 1542 1542 1542 1542 1542 1542 1542 1543 1543 1543 1544 1545 1546 1547 1548 1549 1550 1551 1552 1553 1553 1554 1555 1555 1555 1556 1556 1556 1557 1557 1556 1556 1556 1556 1556
1540 1540 1539 1539 1538 1538 1538 1538 1538 1538 1538 1538 1539 1540 1540 1542 1543 1544 1546 1547 1548 1550 1551 1551 1552 1553 1553 1553 1553 1553 1553 1554 1554 1553 1553 1553 1553 1553
1538 1537 1537 1536 1536 1535 1535 1535 1535 1535 1535 1535 1535 1536 1537 1539 1540 1542 1543 1544 1546 1547 1548 1549 1550 1550 1551 1551 1551 1551 1551 1551 1551 1551 1551 1550 1551 1551
1536 1535 1535 1534 1534 1534 1533 1533 1533 1532 1532 1532 1533 1534 1534 1536 1538 1539 1540 1542 1542 1545 1546 1547 1548 1548 1549 1549 1550 1549 1549 1549 1549 1549 1549 1549 1549 1549
1534 1534 1534 1533 1533 1532 1531 1531 1530 1530 1531 1531 1531 1532 1532 1534 1535 1536 1538 1539 1540 1542 1543 1544 1545 1546 1547 1548 1548 1549 1548 1548 1548 1548 1548 1548 1548 1548
1533 1533 1533 1532 1532 1531 1530 1529 1529 1529 1529 1529 1530 1531 1532 1532 1533 1534 1535 1537 1539 1540 1541 1542 1543 1544 1545 1546 1547 1548 1548 1548 1548 1548 1548 1548 1547 1547
1531 1532 1532 1531 1531 1531 1530 1529 1528 1528 1529 1529 1529 1530 1530 1531 1532 1532 1533 1534 1535 1537 1538 1540 1540 1542 1543 1544 1546 1547 1547 1547 1548 1548 1548 1548 1547 1547
1531 1531 1531 1530 1530 1530 1529 1529 1528 1528 1529 1529 1529 1529 1529 1529 1530 1531 1531 1532 1533 1534 1536 1537 1538 1539 1541 1543 1544 1545 1546 1546 1547 1547 1548 1547 1547 1547
1530 1530 1530 1530 1530 1530 1529 1529 1528 1528 1528 1528 1528 1528 1528 1528 1528 1529 1530 1531 1532 1532 1534 1535 1536 1537 1539 1541 1542 1544 1544 1545 1546 1546 1547 1546 1546 1546
1528 1529 1529 1529 1529 1529 1528 1528 1528 1528 1528 1528 1528 1527 1527 1527 1528 1529 1529 1530 1531 1532 1533 1534 1535 1536 1537 1539 1540 1542 1543 1544 1545 1545 1545 1545 1545 1545
1527 1527 1527 1528 1528 1527 1527 1527 1527 1527 1527 1527 1527 1527 1528 1528 1528 1529 1529 1530 1531 1532 1533 1534 1535 1536 1537 1538 1539 1540 1542 1543 1544 1544 1544 1544 1544 1544
1526 1526 1526 1526 1527 1527 1526 1526 1526 1526 1526 1527 1527 1527 1527 1528 1528 1529 1529 1529 1530 1531 1533 1534 1535 1535 1536 1537 1538 1539 1540 1541 1542 1542 1542 1543 1543 1542
1524 1524 1524 1525 1525 1525 1525 1525 1525 1525 1526 1526 1526 1526 1527 1527 1528 1528 1529 1529 1530 1531 1532 1534 1535 1535 1537 1538 1538 1539 1540 1540 1541 1541 1541 1541 1540 1540
1523 1522 1523 1523 1523 1524 1524 1524 1524 1524 1524 1525 1525 1525 1526 1526 1527 1528 1529 1530 1530 1531 1532 1533 1534 1535 1537 1538 1539 1538 1539 1539 1540 1540 1539 1539 1538 1538
1521 1521 1521 1522 1522 1522 1522 1523 1523 1523 1523 1524 1524 1525 1525 1526 1527 1527 1528 1529 1530 1531 1533 1534 1534 1535 1535 1536 1538 1538 1538 1538 1538 1538 1538 1537 1536 1536
1520 1520 1520 1520 1521 1521 1521 1521 1521 1522 1522 1523 1523 1524 1525 1525 1526 1527 1528 1529 1530 1531 1532 1533 1534 1535 1535 1536 1536 1537 1537 1537 1537 1536 1536 1535 1535 1534
1519 1519 1519 1519 1519 1520 1520 1520 1520 1521 1521 1522 1523 1523 1524 1525 1526 1527 1528 1529 1530 1531 1532 1533 1534 1535 1535 1535 1535 1535 1536 1536 1535 1534 1534 1533 1532 1531
1518 1518 1518 1518 1518 1518 1519 1519 1520 1520 1521 1521 1522 1523 1524 1524 1525 1527 1528 1529 1529 1530 1531 1532 1533 1534 1534 1534 1533 1533 1534 1534 1533 1533 1532 1531 1530 1528
1517 1517 1517 1517 1517 1518 1518 1518 1519 1519 1520 1521 1521 1522 1523 1524 1525 1526 1527 1528 1529 1530 1530 1531 1532 1532 1532 1532 1532 1532 1532 1531 1531 1530 1530 1529 1528 1527